Location: Napier
(39.4830°S, 176.9170°E)
Time: 03:24:01
(UTC+12:00)

Cosmos 2082 Rocket - Pass Details

Date: 15 August 2020
Orbit: 835 x 852 km, 71.0° (Epoch: 20 September)

Event Time Altitude Azimuth Distance (km) Brightness Sun altitude
Rises 18:02:07 0° 207° (SSW) 3,449 5.6 -6.0°
Reaches altitude 10° 18:04:36 10° 210° (SSW) 2,508 4.9 -6.5°
Maximum altitude 18:10:17 61° 289° (WNW) 973 2.9 -7.5°
Drops below altitude 10° 18:15:54 10° 7° (N) 2,481 4.7 -8.6°
Sets 18:18:21 0° 11° (N) 3,408 5.4 -9.1°
